This is the latest recevied weather packets stored in our database for station/object K7D3. If no packets are shown the sender has not sent any weather packets the latest 10 day(s).
| Time | Temp. | Humidity | Pressure | Rain* | Wind** | Luminosity | Snow |
|---|---|---|---|---|---|---|---|
| 1777464160 | 6.11° C | 96% | - | 0 mm | 0 m/s | - | - |
| 1777463677 | 5.56° C | 96% | - | 0 mm | 2.68 m/s, 121° | - | - |
| 1777463198 | 5.56° C | 96% | - | 0 mm | 3.13 m/s, 111° | - | - |
| 1777462718 | 5.56° C | 96% | - | 0 mm | 2.68 m/s, 125° | - | - |
| 1777462236 | 5.56° C | 96% | - | 0 mm | 2.24 m/s, 98° | - | - |
| 1777461757 | 5.56° C | 96% | - | 0.25 mm | 1.79 m/s, 103° | - | - |
| 1777461277 | 5.56° C | 96% | - | 0.25 mm | 2.68 m/s, 105° | - | - |
| 1777460794 | 6.11° C | 96% | - | 0.25 mm | 2.24 m/s, 87° | - | - |
| 1777460315 | 6.11° C | 96% | - | 0.25 mm | 2.24 m/s, 82° | - | - |
| 1777459836 | 6.11° C | 96% | - | 0.25 mm | 0 m/s | - | - |
| 1777459352 | 6.11° C | 95% | - | 0.25 mm | 0 m/s | - | - |
| 1777458873 | 5.56° C | 95% | - | 0.25 mm | 1.79 m/s, 89° | - | - |
| 1777458394 | 6.11° C | 95% | - | 0.25 mm | 2.68 m/s, 86° | - | - |
| 1777457911 | 6.11° C | 95% | - | 0.51 mm | 2.24 m/s, 105° | - | - |
| 1777457432 | 6.11° C | 94% | - | 0.51 mm | 1.34 m/s, 84° | - | - |
| 1777456953 | 6.11° C | 94% | - | 0.51 mm | 0 m/s | - | - |
| 1777456470 | 6.11° C | 93% | - | 0.51 mm | 0 m/s | - | - |
| 1777455991 | 6.11° C | 93% | - | 0.51 mm | 0 m/s | - | - |
| 1777455511 | 6.11° C | 93% | - | 0.51 mm | 0 m/s | - | - |
| 1777455029 | 6.67° C | 93% | - | 0.51 mm | 0 m/s | - | - |
| 1777454550 | 6.67° C | 92% | - | 0 mm | 2.24 m/s, 121° | - | - |
| 1777454070 | 6.67° C | 91% | - | 0 mm | 2.24 m/s, 103° | - | - |
| 1777453588 | 7.22° C | 87% | - | 0 mm | 2.24 m/s, 76° | - | - |
| 1777453109 | 7.22° C | 84% | - | 0 mm | 1.79 m/s, 89° | - | - |
| 1777452630 | 7.22° C | 82% | - | 0 mm | 2.24 m/s, 118° | - | - |
* Rain latest hour (hover to see other rain measurements)
** Current wind speed in m/s (hover to see current wind gust speed)